This is the latest recevied weather packets stored in our database for station/object KE2HEH. If no packets are shown the sender has not sent any weather packets the latest 1 day(s).
| Time | Temp. | Humidity | Pressure | Rain* | Wind** | Luminosity | Snow |
|---|---|---|---|---|---|---|---|
| 1777995461 | 13.89° C | 90% | 1012.5 hPa | 0 mm | 2.68 m/s, 204° | 642 W/m² | - |
| 1777995158 | 13.89° C | 90% | 1012.4 hPa | 0 mm | 3.13 m/s, 202° | 664 W/m² | - |
| 1777994856 | 13.33° C | 90% | 1012.5 hPa | 0 mm | 2.68 m/s, 194° | 639 W/m² | - |
| 1777994552 | 13.33° C | 90% | 1012.7 hPa | 0 mm | 2.68 m/s, 202° | 628 W/m² | - |
| 1777994252 | 13.33° C | 90% | 1012.7 hPa | 0 mm | 2.24 m/s, 206° | 642 W/m² | - |
| 1777993950 | 13.33° C | 91% | 1012.7 hPa | 0 mm | 2.24 m/s, 205° | 645 W/m² | - |
| 1777993646 | 13.33° C | 91% | 1012.6 hPa | 0 mm | 1.79 m/s, 207° | 641 W/m² | - |
| 1777993343 | 13.33° C | 91% | 1012.7 hPa | 0 mm | 2.24 m/s, 195° | 644 W/m² | - |
| 1777993046 | 13.33° C | 92% | 1012.8 hPa | 0 mm | 1.79 m/s, 210° | 665 W/m² | - |
| 1777992737 | 13.33° C | 92% | 1012.7 hPa | 0 mm | 2.68 m/s, 186° | 629 W/m² | - |
| 1777992434 | 13.33° C | 92% | 1012.9 hPa | 0 mm | 2.24 m/s, 210° | 625 W/m² | - |
| 1777992132 | 12.78° C | 93% | 1013 hPa | 0 mm | 1.79 m/s, 207° | 598 W/m² | - |
| 1777991828 | 12.78° C | 93% | 1013.1 hPa | 0 mm | 3.13 m/s, 207° | 597 W/m² | - |
| 1777991526 | 12.78° C | 93% | 1013.2 hPa | 0 mm | 1.79 m/s, 206° | 627 W/m² | - |
| 1777991223 | 12.78° C | 93% | 1013 hPa | 0 mm | 3.13 m/s, 211° | 613 W/m² | - |
| 1777990920 | 12.78° C | 94% | 1013 hPa | 0 mm | 4.02 m/s, 207° | 657 W/m² | - |
| 1777990618 | 12.78° C | 94% | 1013.1 hPa | 0 mm | 4.02 m/s, 202° | 639 W/m² | - |
| 1777990315 | 12.78° C | 94% | 1012.7 hPa | 0 mm | 2.24 m/s, 197° | 658 W/m² | - |
| 1777990011 | 12.78° C | 94% | 1012.7 hPa | 0 mm | 3.13 m/s, 192° | 661 W/m² | - |
| 1777989708 | 12.22° C | 94% | 1012.6 hPa | 0 mm | 3.58 m/s, 202° | 650 W/m² | - |
| 1777989404 | 12.22° C | 95% | 1012.8 hPa | 0 mm | 2.68 m/s, 200° | 639 W/m² | - |
| 1777989101 | 12.22° C | 95% | 1012.8 hPa | 0 mm | 3.58 m/s, 199° | 630 W/m² | - |
| 1777988796 | 12.22° C | 95% | 1012.5 hPa | 0 mm | 4.02 m/s, 180° | 609 W/m² | - |
| 1777988494 | 12.22° C | 95% | 1012.5 hPa | 0 mm | 3.58 m/s, 201° | 603 W/m² | - |
| 1777988191 | 12.22° C | 95% | 1012.5 hPa | 0 mm | 4.02 m/s, 179° | 580 W/m² | - |
* Rain latest hour (hover to see other rain measurements)
** Current wind speed in m/s (hover to see current wind gust speed)